Weather History for St.-Anicet, QC

Change the Weather History Date:

Thursday, September 27, 2012

  Actual Average Record
Temperature  
Mean Temperature 50 °F -  
Max Temperature 61 °F - - ()
Min Temperature 38 °F - - ()
Degree Days  
Heating Degree Days 16    
Moisture  
Dew Point 43 °F    
Average Humidity 77    
Maximum Humidity 98    
Minimum Humidity 40    
Precipitation  
Precipitation 0.00 in - - ()
Sea Level Pressure  
Sea Level Pressure 30.21 in    
Wind  
Wind Speed 2 mph ()    
Max Wind Speed 6 mph    
Max Gust Speed -    
T = Trace of Precipitation, MM = Missing Value Source: Averaged Metar Reports

Daily Weather History Graph

Daily Weather History Graph

Search for Another Location

Airport:

Trip Planner

Search our weather history database for the weather conditions in past years. The results will help you decide how hot, cold, wet, or windy it might be!

Date:

Astronomy

Sep. 27, 2012 Rise Set
Actual Time 6:50 AM EDT 6:44 PM EDT
Civil Twilight 6:21 AM EDT 7:13 PM EDT
Nautical Twilight 5:47 AM EDT 7:47 PM EDT
Astronomical Twilight 5:12 AM EDT 8:22 PM EDT
Moon 5:18 PM EDT (9/27) 4:12 AM EDT (9/27)
Length of Visible Light 12h 51m
Length of Day
11h 53m
Waxing Gibbous, 94% of the Moon is Illuminated
Sep 27
Waxing Gibbous
Sep 29
Full
Oct 8
Last Quarter
Oct 15
New
Oct 21
First Quarter

Hourly Weather History & Observations

Time (EDT) Temp. Dew Point Humidity Pressure Visibility Wind Dir Wind Speed Gust Speed Precip Events Conditions
12:00 AM 51.3 °F 48.7 °F 91% 30.09 in - NNW 2.3 mph - N/A   Unknown
1:00 AM 52.2 °F 47.5 °F 84% 30.11 in - NW 3.5 mph - N/A   Unknown
2:00 AM 50 °F 47 °F 86% 30.11 in - NNW 1.2 mph - -  
2:00 AM 49.6 °F 47.1 °F 91% 30.11 in - NNW 1.2 mph - N/A   Unknown
3:00 AM 47.3 °F 46.0 °F 95% 30.12 in - NW 2.3 mph - N/A   Unknown
4:00 AM 47.3 °F 44.4 °F 90% 30.14 in - WNW 3.5 mph - N/A   Unknown
5:00 AM 43.5 °F 41.7 °F 93% 30.16 in - West 2.3 mph - N/A   Unknown
6:00 AM 40.8 °F 39.9 °F 97% 30.19 in - West 2.3 mph - N/A   Unknown
8:00 AM 43 °F 42 °F 97% 30.23 in - SSW 1.2 mph - -  
8:00 AM 43.0 °F 42.4 °F 98% 30.23 in - SSW 1.2 mph - N/A   Unknown
9:00 AM 51.1 °F 45.7 °F 82% 30.25 in - West 3.5 mph - N/A   Unknown
10:00 AM 54.0 °F 43.5 °F 68% 30.26 in - NW 5.8 mph - N/A   Unknown
11:00 AM 56.8 °F 41.9 °F 57% 30.27 in - NW 3.5 mph - N/A   Unknown
12:00 PM 56.3 °F 39.9 °F 54% 30.27 in - WNW 4.6 mph - N/A   Unknown
1:00 PM 57.9 °F 39.9 °F 51% 30.26 in - WNW 5.8 mph - N/A   Unknown
2:00 PM 58 °F 40 °F 40% 30.25 in - NNW 5.8 mph - -  
2:00 PM 58.5 °F 40.3 °F 51% 30.25 in - NNW 5.8 mph - N/A   Unknown
3:00 PM 60.8 °F 39.7 °F 46% 30.24 in - West 4.6 mph - N/A   Unknown
4:00 PM 58.6 °F 40.1 °F 50% 30.23 in - West 4.6 mph - N/A   Unknown
5:00 PM 60.6 °F 39.9 °F 46% 30.23 in - NW 3.5 mph - N/A   Unknown
6:00 PM 59.5 °F 42.4 °F 53% 30.23 in - West 2.3 mph - N/A   Unknown
7:00 PM 48.6 °F 45.1 °F 88% 30.24 in - Calm Calm - N/A   Unknown
8:00 PM 44 °F 43 °F 93% 30.25 in - Calm Calm - -  
8:00 PM 43.9 °F 42.6 °F 95% 30.25 in - Calm Calm - N/A   Unknown
9:00 PM 41.7 °F 40.8 °F 97% 30.25 in - Calm Calm - N/A   Unknown
10:00 PM 39.9 °F 39.2 °F 97% 30.25 in - Calm Calm - N/A   Unknown
11:00 PM 38.7 °F 37.9 °F 97% 30.24 in - Calm Calm - N/A   Unknown